Список аэропортов
Фактическая погода:

23 апреля, 12:00
Температура: +1°C (-3.1*)
Ветер: сев.-восточный 4 м/с
Давление: *756 мм
разорв. обл.
120 м
облачно
720 м
слаб. снег
Время (МСК)Темп. СВетерВлажностьДавлениеОблачностьОсадки
09:00+6В, 3 м/с72%1009 гПаоблачнодождь
10:00+6СВ, 5 м/с69%1008 гПаоблачнодождь
11:00+7СВ, 6 м/с66%1006 гПаоблачнодождь
12:00+7СВ, 4 м/с69%1006 гПаоблачнодождь
13:00+7С, 3 м/с70%1007 гПаоблачнодождь
14:00+8СЗ, 4 м/с71%1006 гПаоблачнодождь
15:00+8СЗ, 5 м/с68%1006 гПаоблачнодождь
16:00+7З, 6 м/с72%1006 гПаоблачнодождь
17:00+7З, 7 м/с77%1007 гПаоблачнодождь
18:00+7З, 8 м/с79%1007 гПаоблачнодождь
19:00+6З, 7 м/с79%1008 гПаоблачнодождь
20:00+7ЮЗ, 7 м/с80%1008 гПаоблачносл. дождь
21:00+7ЮЗ, 7 м/с86%1009 гПаоблачно
22:00+7ЮЗ, 6 м/с91%1009 гПаоблачно
23:00+7ЮЗ, 5 м/с90%1009 гПаоблачно
24 апреля
00:00+6ЮЗ, 5 м/с93%1010 гПаоблачно
01:00+7ЮЗ, 5 м/с90%1010 гПаоблачно
02:00+7ЮЗ, 5 м/с88%1010 гПаоблачносл. дождь
03:00+7Ю, 4 м/с88%1009 гПаоблачносл. дождь
04:00+7ЮВ, 4 м/с86%1008 гПаоблачнодождь
05:00+7ЮВ, 3 м/с80%1007 гПаоблачнодождь
06:00+8ЮВ, 2 м/с81%1007 гПаоблачнодождь
07:00+7С, 4 м/с87%1006 гПаоблачнодождь
08:00+5СЗ, 9 м/с87%1008 гПаоблачнодождь
09:00+6СЗ, 8 м/с87%1009 гПаоблачнодождь
10:00+7СЗ, 7 м/с84%1010 гПаоблачнодождь
11:00+8СЗ, 8 м/с80%1011 гПаоблачносл. дождь
12:00+9З, 8 м/с82%1011 гПаоблачнодождь
13:00+10З, 8 м/с84%1012 гПаоблачнодождь
14:00+10З, 9 м/с85%1013 гПаоблачнодождь
15:00+10З, 10 м/с77%1013 гПас прояснениямидождь
16:00+9З, 9 м/с77%1014 гПас прояснениями
17:00+9З, 9 м/с75%1015 гПас прояснениями
18:00+8З, 9 м/с78%1016 гПас прояснениямисл. дождь
19:00+7З, 8 м/с76%1017 гПамалооблачно
20:00+7З, 6 м/с76%1018 гПамалооблачно
21:00+7З, 6 м/с78%1019 гПамалооблачно
22:00+6З, 4 м/с79%1020 гПамалооблачно
23:00+6ЮЗ, 4 м/с81%1020 гПамалооблачно
25 апреля
00:00+5ЮЗ, 3 м/с86%1021 гПамалооблачно
01:00+4ЮЗ, 3 м/с92%1022 гПаясно
02:00+4ЮЗ, 3 м/с96%1022 гПаясно
03:00+3Ю, 3 м/с98%1023 гПамалооблачно
04:00+3Ю, 4 м/с98%1023 гПас прояснениями
05:00+4Ю, 4 м/с99%1024 гПас прояснениями
06:00+4ЮЗ, 3 м/с99%1025 гПаоблачно
07:00+6ЮЗ, 4 м/с98%1025 гПаоблачно
08:00+8ЮЗ, 4 м/с87%1025 гПаясно
09:00+10ЮЗ, 5 м/с72%1026 гПаясно